Location: Helsinki
(60.1699°N, 24.9384°E)
Time: 09:23:47
(UTC+02:00)

Vanguard 2 Rocket - Pass Details

Date: 27 September 2023
Orbit: 552 x 3312 km, 32.9° (Epoch: 05 December)

Event Time Altitude Azimuth Distance (km) Brightness Sun altitude
Rises 15:48:47 0° 251° (WSW) 7,177 12.5 21.1°
Reaches altitude 10° 15:54:57 10° 240° (WSW) 6,261 12.9 20.5°
Maximum altitude 16:08:44 24° 196° (SSW) 4,925 11.9 19.3°
Drops below altitude 10° 16:20:41 10° 151° (SSE) 5,366 11.0 18.2°
Sets 16:25:25 0° 139° (SE) 5,985 11.1 17.7°
